Location: Unspecified
(0.0000°N, 0.0000°E)
Time: 08:51:39
(UTC+00:00)

Vanguard 2 - Visible Passes

Search period start: 23 May 2017 00:00
Search period end: 02 June 2017 00:00
Orbit: 554 x 2940 km, 32.9° (Epoch: 22 May)

Date Brightness Start Highest point End Pass type
(mag) Time Alt. Az. Time Alt. Az. Time Alt. Az.
23 May 8.4 03:37:56 47° ESE 03:37:56 47° ESE 03:41:39 10° ENE visible
23 May 11.3 18:43:19 10° W 18:57:15 33° SSW 19:12:10 10° SSE visible
23 May 11.5 21:04:57 10° SW 21:14:01 16° SSW 21:14:24 16° SSW visible
24 May 7.6 03:55:14 90° NW 03:55:14 90° NW 03:59:59 10° NE visible
24 May 11.4 19:03:42 10° WSW 19:16:42 26° SSW 19:30:02 10° SSE visible
24 May 11.6 21:26:27 10° SW 21:31:28 13° SSW 21:31:28 13° SSW visible
25 May 8.0 04:12:30 47° WNW 04:13:22 52° NW 04:17:57 10° NE visible
25 May 11.4 19:24:36 10° WSW 19:36:25 21° SSW 19:47:04 12° SSE visible
25 May 11.7 21:47:02 10° SSW 21:48:30 11° SSW 21:48:30 11° SSW visible
26 May 10.6 02:28:19 11° ENE 02:28:19 11° ENE 02:28:33 10° ENE visible
26 May 8.8 04:29:45 25° WNW 04:31:24 29° NW 04:35:33 10° NNE visible
26 May 11.4 19:45:51 10° SW 19:56:26 18° SSW 20:04:06 13° SSE visible
27 May 10.0 02:45:31 21° ENE 02:45:31 21° ENE 02:47:01 10° ENE visible
27 May 9.4 04:46:57 13° WNW 04:49:25 17° NW 04:52:35 10° N visible
27 May 11.4 20:07:06 10° SW 20:16:39 16° S 20:21:06 15° S visible
28 May 9.5 03:02:41 30° NE 03:02:41 30° NE 03:05:10 10° NE visible
28 May 11.5 18:07:28 10° WSW 18:18:47 23° SSW 18:31:36 10° SSE visible
28 May 11.4 20:27:50 10° SSW 20:36:59 16° S 20:38:07 15° S visible
29 May 9.2 03:19:48 34° N 03:19:48 34° N 03:23:01 10° NNE visible
29 May 11.5 18:28:17 10° SW 18:38:43 19° SSW 18:50:04 10° SSE visible
29 May 11.5 20:47:42 10° SSW 20:55:06 16° S 20:55:06 16° S visible
30 May 9.4 03:36:53 27° NNW 03:36:53 27° NNW 03:40:33 10° NNE visible
30 May 11.5 18:49:16 10° SW 18:58:54 17° S 19:09:00 10° SSE visible
30 May 11.5 21:06:45 10° SSW 21:12:07 16° S 21:12:07 16° S visible
31 May 9.8 03:53:54 18° NW 03:53:54 18° NW 03:57:34 10° N visible
31 May 11.4 19:09:58 10° SW 19:19:14 16° S 19:27:44 11° SSE visible
31 May 11.6 21:25:16 10° SSW 21:29:10 16° SSW 21:29:10 16° SSW visible
01 Jun 10.6 02:09:28 14° NE 02:09:28 14° NE 02:10:12 10° NE visible
01 Jun 10.3 04:10:54 10° NW 04:11:44 10° NW 04:12:47 10° NNW visible
01 Jun 11.4 19:29:58 10° SSW 19:39:36 16° S 19:44:48 14° SSE visible
01 Jun 11.6 21:43:29 10° SSW 21:46:14 15° SSW 21:46:14 15° SSW visible
